Regional Weather Roundup
Issued by NWS

Home | Current Version | Previous Version | Text Only | Print | Product List | Glossary Off
Versions: 1 2 3 4 5 6 7 8 9 10 11 12 13 14 15 16 17 18 19 20 21 22 23 24 25 26 27 28 29 30 31 32 33 34 35 36 37 38 39 40 41 42 43 44 45 46 47 48 49 50

000
ASUS45 KSLC 011310
RWRUT

UTAH REGIONAL WEATHER ROUNDUP
NATIONAL WEATHER SERVICE SALT LAKE CITY UT
600 AM MST SUN MAR 01 2015

UTZ001>011-023>025-011400-

NORTHERN UTAH

CITY           SKY/WX    TMP DP  RH WIND       PRES   REMARKS
BRIGHAM CITY   CLEAR     28  16  60 N6        30.06R WCI  21
HILL AFB       MOCLDY    31  19  63 E18G24    30.02R WCI  19
LOGAN          CLEAR     24  16  71 S3        30.08R
OGDEN          PTCLDY    29  21  72 SW3       30.02R
PROVO AIRPORT  MOCLDY    34  30  86 CALM      30.03R
SALT LAKE CITY MOCLDY    33  30  88 CALM      30.03R
VERNAL         CLOUDY    30  22  72 NE7       30.04R WCI  23
WENDOVER       CLOUDY    36  19  51 SW5       30.04S WCI  32
HEBER CITY     FLURRIES  23  23 100 CALM      30.03R
WEST JORDAN    CLOUDY    32  30  93 CALM      30.03R

$$

UTZ012>022-026-027-011400-

SOUTHERN/CENTRAL UTAH

CITY           SKY/WX    TMP DP  RH WIND       PRES   REMARKS
BLANDING       CLOUDY    31  29  94 NE6       30.09R WCI  25
BRYCE CANYON   CLOUDY    20  17  88 N3        29.98R
CEDAR CITY     PTCLDY    22  19  89 NE5       29.94R WCI  16
DELTA          CLOUDY    33  33 100 S3        30.01R
HANKSVILLE     CLOUDY    30  28  93 CALM      30.04R
MILFORD        CLOUDY    30  27  88 N5        29.99S WCI  25
MOAB/CYNLANDS  CLEAR     30  29  96 CALM      30.01R
PRICE          MOCLDY    31  27  85 CALM      30.00R
ST GEORGE      PTSUNNY   43  34  70 CALM      30.00R
KANAB          CLOUDY    32  32 100 N5        30.04R VSB 1   WCI  27

$$

REGIONAL REPORTS     COLORADO/ARIZONA

CITY           SKY/WX    TMP DP  RH WIND       PRES   REMARKS
CRAIG, CO      CLOUDY    20  16  84 W3        30.07R
GRAND JUNCTION CLOUDY    30  29  96 SE10      30.03R WCI  21
RIFLE          CLOUDY    30  26  85 E3        30.03R
MONTROSE       CLOUDY    27  25  92 SE8       30.06R WCI  19
CORTEZ         MIX PCPN  32  32 100 N7        30.04R WCI  26
PAGE, AZ       CLOUDY    39  34  82 E3        30.00R
GRAND CANYON   LGT SNOW  33  31  92 SW12      29.99R FOG     WCI  24
KINGMAN        CLOUDY    48  34  58 SW6       29.92R
FLAGSTAFF      LGT SNOW  32  31  96 VRB3      29.98R VSB 3/4

$$

REGIONAL REPORTS    NEVADA/IDAHO/WYOMING

CITY           SKY/WX    TMP DP  RH WIND       PRES   REMARKS
LAS VEGAS, NV  CLOUDY    49  33  54 S6        29.89R
ELY            CLOUDY    27  25  92 N10       29.97R WCI  17
ELKO           CLOUDY    31  21  66 CALM      30.00R
POCATELLO, ID  CLEAR     17   5  59 NE9       30.14R WCI   6
BURLEY         CLEAR     22   7  52 E8        30.13R WCI  12
EVANSTON, WY   CLOUDY    18  15  88 E12       30.01R WCI   5
ROCK SPRINGS   PTCLDY     8   3  80 E6        30.09R WCI  -2

$$


USA.gov is the U.S. government's official web portal to all federal, state and local government web resources and services.